contact:dominique.lefevre@mio.osupytheas.fr, maurice.libes@osupytheas.fr, didier.mallarino@osupytheas.fr
Project:EMSO http://www.emso-fr.org/EMSO-France
Depth: 2436.0 m
Title:EMSO Ligure Ouest : Data MII capteur AQUADOPP
Date,Latitude,Longitude,X_East,Y_North,Z_Up,Amplitude_X,Amplitude_Y,Amplitude_Z,Batterie,SoundSpeed,Heading,Pitch,Roll,Pressure,TIS,Speed,Direction
, degrees North, degrees East, m.s-1, m.s-1,m.s-1, 1, 1, 1, Volt, m.s-1, degree, degree, degree, dbar, degree_C, m.s-1, degree
2020-07-16T00:04:03,42.805,6.029,0.01,0.037,-0.004,104.0,117.0,102.0,13.4,1505.3,325.0,-0.7,1.8,2470.393,13.31,0.038,15.1
2020-07-16T00:07:03,42.805,6.029,0.009,0.001,-0.013,103.0,116.0,101.0,13.3,1505.3,328.0,-0.7,1.9,2470.397,13.31,0.009,83.7
2020-07-16T00:10:03,42.805,6.029,0.021,0.021,-0.002,104.0,120.0,101.0,13.4,1505.3,324.6,-0.7,1.8,2470.385,13.32,0.029,45.0
2020-07-16T00:13:03,42.805,6.029,0.004,0.023,-0.011,104.0,118.0,101.0,13.4,1505.3,323.2,-0.7,1.8,2470.375,13.32,0.023,9.9
2020-07-16T00:16:03,42.805,6.029,-0.008,0.049,0.0,104.0,119.0,102.0,13.4,1505.3,325.3,-0.7,1.8,2470.361,13.32,0.049,350.7
2020-07-16T00:19:03,42.805,6.029,0.014,0.029,-0.007,104.0,120.0,101.0,13.4,1505.3,327.2,-0.7,1.8,2470.358,13.32,0.032,25.8
2020-07-16T00:22:03,42.805,6.029,0.021,0.025,-0.004,103.0,120.0,102.0,13.4,1505.3,327.2,-0.7,1.9,2470.369,13.33,0.032,40.0
2020-07-16T00:25:03,42.805,6.029,-0.015,0.027,-0.017,103.0,121.0,102.0,13.4,1505.3,325.6,-0.7,1.9,2470.373,13.33,0.03,330.9
2020-07-16T00:28:03,42.805,6.029,-0.006,0.02,-0.025,105.0,116.0,101.0,13.3,1505.3,325.1,-0.7,1.8,2470.374,13.33,0.02,343.3
2020-07-16T00:31:03,42.805,6.029,0.015,0.001,-0.017,103.0,121.0,101.0,13.4,1505.3,327.1,-0.7,1.8,2470.397,13.33,0.015,86.2
2020-07-16T00:34:03,42.805,6.029,0.003,0.023,-0.006,104.0,121.0,101.0,13.4,1505.3,322.9,-0.7,1.8,2470.41,13.33,0.023,7.4
2020-07-16T00:37:03,42.805,6.029,0.003,0.008,0.004,103.0,118.0,101.0,13.3,1505.3,326.7,-0.7,1.8,2470.345,13.33,0.008,20.6
2020-07-16T00:40:03,42.805,6.029,0.009,0.013,-0.012,103.0,120.0,101.0,13.3,1505.3,325.5,-0.7,1.8,2470.386,13.33,0.015,34.7
2020-07-16T00:43:03,42.805,6.029,0.008,0.042,-0.018,103.0,122.0,102.0,13.4,1505.3,325.4,-0.7,1.8,2470.382,13.33,0.042,10.8
2020-07-16T00:46:03,42.805,6.029,0.031,0.032,-0.017,104.0,117.0,102.0,13.4,1505.3,325.4,-0.7,1.8,2470.38,13.33,0.044,44.1
2020-07-16T00:49:03,42.805,6.029,0.007,0.033,-0.004,102.0,123.0,102.0,13.4,1505.3,325.4,-0.7,1.8,2470.371,13.33,0.033,12.0
2020-07-16T00:52:03,42.805,6.029,0.0,0.014,-0.014,104.0,121.0,100.0,13.3,1505.3,323.2,-0.7,1.8,2470.342,13.33,0.014,0.0
2020-07-16T00:55:03,42.805,6.029,-0.005,0.027,0.011,103.0,120.0,102.0,13.3,1505.3,326.7,-0.7,1.8,2470.372,13.33,0.027,349.5
2020-07-16T00:58:03,42.805,6.029,-0.01,0.042,-0.014,105.0,119.0,101.0,13.3,1505.3,326.8,-0.7,1.9,2470.354,13.33,0.043,346.6
2020-07-16T01:04:03,42.805,6.029,0.019,0.034,0.008,104.0,123.0,103.0,13.4,1505.3,326.6,-0.7,1.8,2470.424,13.31,0.038,29.2
2020-07-16T01:07:03,42.805,6.029,-0.018,0.02,-0.058,104.0,121.0,102.0,13.3,1505.3,327.7,-0.7,1.8,2470.383,13.31,0.026,318.0
2020-07-16T01:10:03,42.805,6.029,0.0,0.018,-0.022,104.0,122.0,101.0,13.3,1505.3,323.2,-0.7,1.8,2470.436,13.32,0.018,0.0
2020-07-16T01:13:03,42.805,6.029,-0.009,0.021,-0.007,104.0,119.0,101.0,13.3,1505.3,324.4,-0.7,1.8,2470.401,13.32,0.022,336.8
2020-07-16T01:16:03,42.805,6.029,0.025,0.03,0.011,104.0,122.0,101.0,13.4,1505.3,326.0,-0.7,1.8,2470.379,13.32,0.039,39.8
2020-07-16T01:19:03,42.805,6.029,0.012,0.055,-0.008,105.0,121.0,100.0,13.3,1505.3,326.1,-0.7,1.8,2470.361,13.33,0.056,12.3
2020-07-16T01:22:03,42.805,6.029,-0.014,0.024,-0.026,104.0,122.0,101.0,13.4,1505.3,327.7,-0.7,1.8,2470.388,13.33,0.027,329.7
2020-07-16T01:25:03,42.805,6.029,0.002,0.022,-0.01,105.0,120.0,102.0,13.3,1505.3,327.0,-0.7,1.9,2470.397,13.33,0.022,5.2
2020-07-16T01:28:03,42.805,6.029,0.008,0.018,-0.034,102.0,122.0,101.0,13.4,1505.3,327.6,-0.7,1.8,2470.412,13.33,0.019,24.0
2020-07-16T01:31:03,42.805,6.029,-0.01,0.026,-0.013,104.0,122.0,102.0,13.3,1505.3,324.5,-0.7,1.8,2470.359,13.33,0.027,339.0
2020-07-16T01:34:03,42.805,6.029,0.022,0.018,0.004,104.0,121.0,101.0,13.4,1505.3,326.0,-0.7,1.8,2470.361,13.33,0.028,50.7
2020-07-16T01:37:03,42.805,6.029,-0.003,0.044,-0.022,104.0,121.0,102.0,13.4,1505.3,325.4,-0.7,1.8,2470.404,13.33,0.044,356.1
2020-07-16T01:40:03,42.805,6.029,-0.004,0.025,-0.023,104.0,123.0,101.0,13.4,1505.3,328.0,-0.7,1.8,2470.38,13.33,0.025,350.9
2020-07-16T01:43:03,42.805,6.029,-0.023,0.016,-0.002,102.0,122.0,101.0,13.4,1505.3,324.2,-0.7,1.8,2470.419,13.33,0.028,304.8
2020-07-16T01:46:03,42.805,6.029,0.016,0.036,0.005,103.0,122.0,101.0,13.3,1505.3,323.5,-0.7,1.8,2470.408,13.33,0.039,24.0
2020-07-16T01:49:03,42.805,6.029,-0.001,0.032,-0.01,103.0,122.0,103.0,13.3,1505.3,323.2,-0.7,1.8,2470.396,13.33,0.032,358.2
2020-07-16T01:52:03,42.805,6.029,-0.004,0.008,-0.049,104.0,123.0,101.0,13.3,1505.3,327.6,-0.7,1.8,2470.39,13.33,0.008,333.4
2020-07-16T01:55:03,42.805,6.029,-0.016,0.041,-0.012,104.0,121.0,101.0,13.4,1505.3,327.1,-0.7,1.9,2470.406,13.33,0.044,338.7
2020-07-16T01:58:03,42.805,6.029,0.002,0.015,-0.034,104.0,121.0,102.0,13.3,1505.3,325.2,-0.7,1.8,2470.377,13.33,0.015,7.6
2020-07-16T02:04:03,42.805,6.029,0.012,0.043,-0.016,104.0,119.0,101.0,13.4,1505.3,325.1,-0.7,1.8,2470.401,13.31,0.044,15.6
2020-07-16T02:07:03,42.805,6.029,-0.005,0.05,-0.014,105.0,121.0,101.0,13.4,1505.3,326.0,-0.7,1.8,2470.378,13.31,0.05,354.3
2020-07-16T02:10:03,42.805,6.029,0.035,0.021,0.002,104.0,122.0,102.0,13.4,1505.3,325.5,-0.7,1.8,2470.413,13.32,0.04,59.0
2020-07-16T02:13:03,42.805,6.029,0.021,0.008,0.0,103.0,121.0,101.0,13.4,1505.3,325.5,-0.7,1.8,2470.395,13.32,0.022,69.1
2020-07-16T02:16:03,42.805,6.029,-0.001,0.027,-0.015,103.0,122.0,102.0,13.4,1505.3,325.7,-0.7,1.8,2470.431,13.33,0.027,357.9
2020-07-16T02:19:03,42.805,6.029,0.001,0.029,0.0,103.0,122.0,101.0,13.4,1505.3,324.4,-0.7,1.8,2470.428,13.33,0.029,2.0
2020-07-16T02:22:03,42.805,6.029,-0.004,0.025,0.015,104.0,120.0,102.0,13.3,1505.3,324.5,-0.7,1.8,2470.375,13.33,0.025,350.9
2020-07-16T02:25:03,42.805,6.029,-0.003,0.03,0.0,104.0,118.0,100.0,13.4,1505.3,324.9,-0.7,1.9,2470.403,13.33,0.03,354.3
2020-07-16T02:28:03,42.805,6.029,0.013,0.033,0.011,102.0,120.0,103.0,13.4,1505.3,325.9,-0.8,1.8,2470.403,13.33,0.035,21.5
2020-07-16T02:31:03,42.805,6.029,0.009,0.022,-0.022,103.0,122.0,101.0,13.4,1505.3,326.9,-0.7,1.8,2470.414,13.33,0.023,22.2
2020-07-16T02:34:03,42.805,6.029,-0.012,0.012,-0.01,103.0,122.0,102.0,13.4,1505.3,323.9,-0.7,1.8,2470.381,13.33,0.016,315.0
2020-07-16T02:37:03,42.805,6.029,0.034,0.027,0.013,104.0,122.0,101.0,13.4,1505.3,324.7,-0.7,1.8,2470.398,13.33,0.043,51.5
2020-07-16T02:40:03,42.805,6.029,-0.003,0.022,0.013,104.0,123.0,101.0,13.3,1505.3,326.6,-0.7,1.8,2470.417,13.33,0.022,352.2
2020-07-16T02:43:03,42.805,6.029,0.012,0.036,-0.005,104.0,123.0,101.0,13.4,1505.3,326.8,-0.7,1.8,2470.395,13.33,0.037,18.4
2020-07-16T02:46:03,42.805,6.029,-0.008,0.019,-0.024,105.0,121.0,101.0,13.4,1505.3,325.3,-0.7,1.9,2470.391,13.33,0.02,337.2
2020-07-16T02:49:03,42.805,6.029,0.017,0.015,-0.006,104.0,123.0,102.0,13.4,1505.3,325.2,-0.7,1.8,2470.417,13.33,0.022,48.6
2020-07-16T02:52:03,42.805,6.029,-0.006,0.036,-0.039,103.0,122.0,101.0,13.4,1505.3,324.1,-0.7,1.8,2470.395,13.33,0.036,350.5
2020-07-16T02:55:03,42.805,6.029,0.002,0.028,-0.005,104.0,123.0,102.0,13.4,1505.3,327.2,-0.7,1.8,2470.44,13.33,0.028,4.1
2020-07-16T02:58:03,42.805,6.029,-0.007,0.033,-0.011,104.0,124.0,100.0,13.4,1505.3,324.3,-0.7,1.8,2470.421,13.33,0.033,348.0
2020-07-16T03:04:03,42.805,6.029,0.021,0.034,-0.035,103.0,124.0,102.0,13.3,1505.3,326.8,-0.8,1.9,2470.46,13.31,0.039,31.7
2020-07-16T03:07:03,42.805,6.029,0.021,0.035,0.023,104.0,124.0,101.0,13.4,1505.3,326.4,-0.7,1.9,2470.413,13.31,0.04,31.0
2020-07-16T03:10:03,42.805,6.029,0.0,0.018,-0.019,103.0,121.0,101.0,13.3,1505.3,327.2,-0.7,1.8,2470.423,13.32,0.018,0.0
2020-07-16T03:13:03,42.805,6.029,0.0,0.04,-0.004,104.0,123.0,101.0,13.4,1505.3,323.5,-0.7,1.8,2470.409,13.32,0.04,0.0
2020-07-16T03:16:03,42.805,6.029,0.001,0.04,0.01,105.0,117.0,102.0,13.4,1505.3,322.7,-0.7,1.8,2470.369,13.33,0.04,1.4
2020-07-16T03:19:03,42.805,6.029,0.007,0.023,-0.018,104.0,122.0,101.0,13.4,1505.3,324.4,-0.7,1.8,2470.422,13.33,0.024,16.9
2020-07-16T03:22:03,42.805,6.029,0.011,0.025,0.008,103.0,123.0,101.0,13.4,1505.3,326.4,-0.7,1.8,2470.436,13.33,0.027,23.7
2020-07-16T03:25:03,42.805,6.029,0.016,0.018,-0.007,104.0,119.0,102.0,13.4,1505.3,327.9,-0.7,1.8,2470.402,13.33,0.024,41.6
2020-07-16T03:28:03,42.805,6.029,0.018,0.017,-0.007,105.0,120.0,101.0,13.4,1505.3,324.5,-0.8,1.9,2470.405,13.33,0.024,46.6
2020-07-16T03:31:03,42.805,6.029,-0.003,0.036,-0.007,104.0,122.0,101.0,13.4,1505.3,326.7,-0.7,1.9,2470.386,13.33,0.036,355.2
2020-07-16T03:34:03,42.805,6.029,-0.011,0.031,-0.024,105.0,119.0,101.0,13.4,1505.3,324.4,-0.7,1.8,2470.376,13.33,0.032,340.5
2020-07-16T03:37:03,42.805,6.029,-0.023,0.02,-0.058,104.0,121.0,102.0,13.4,1505.3,327.4,-0.7,1.8,2470.451,13.33,0.03,311.0
2020-07-16T03:40:03,42.805,6.029,0.005,0.028,-0.008,103.0,123.0,102.0,13.3,1505.3,326.2,-0.7,1.8,2470.442,13.33,0.028,10.1
2020-07-16T03:43:03,42.805,6.029,0.008,0.047,0.009,104.0,119.0,102.0,13.4,1505.3,328.2,-0.7,1.8,2470.396,13.33,0.047,9.7
2020-07-16T03:46:03,42.805,6.029,-0.015,0.033,-0.032,104.0,122.0,103.0,13.4,1505.3,326.5,-0.7,1.8,2470.434,13.33,0.036,335.6
2020-07-16T03:49:03,42.805,6.029,-0.008,0.034,-0.022,103.0,122.0,101.0,13.4,1505.3,325.5,-0.8,1.8,2470.377,13.33,0.034,346.8
2020-07-16T03:52:03,42.805,6.029,0.0,0.041,0.001,103.0,124.0,101.0,13.4,1505.3,325.2,-0.7,1.9,2470.385,13.33,0.041,0.0
2020-07-16T03:55:03,42.805,6.029,-0.019,0.019,-0.027,103.0,123.0,101.0,13.4,1505.3,325.0,-0.7,1.8,2470.394,13.33,0.026,315.0
2020-07-16T03:58:03,42.805,6.029,0.021,0.047,-0.002,104.0,123.0,100.0,13.4,1505.3,326.8,-0.6,1.9,2470.372,13.33,0.051,24.1
2020-07-16T04:04:03,42.805,6.029,-0.014,0.039,-0.014,102.0,123.0,101.0,13.4,1505.3,325.4,-0.7,1.8,2470.458,13.31,0.041,340.3
2020-07-16T04:07:03,42.805,6.029,0.008,0.03,-0.003,103.0,123.0,100.0,13.4,1505.3,327.0,-0.7,1.8,2470.436,13.31,0.031,14.9
2020-07-16T04:10:03,42.805,6.029,0.008,0.038,-0.007,103.0,121.0,101.0,13.4,1505.3,327.6,-0.7,1.8,2470.419,13.32,0.038,11.9
2020-07-16T04:13:03,42.805,6.029,0.027,0.041,-0.005,103.0,122.0,103.0,13.4,1505.3,323.3,-0.7,1.8,2470.419,13.32,0.049,33.4
2020-07-16T04:16:03,42.805,6.029,0.007,0.025,-0.002,103.0,120.0,101.0,13.3,1505.3,325.4,-0.7,1.8,2470.404,13.32,0.025,15.6
2020-07-16T04:19:03,42.805,6.029,0.018,0.026,-0.031,104.0,121.0,101.0,13.4,1505.3,324.7,-0.7,1.9,2470.394,13.32,0.031,34.7
2020-07-16T04:22:03,42.805,6.029,-0.028,0.037,-0.031,103.0,123.0,100.0,13.4,1505.3,324.2,-0.8,1.8,2470.396,13.33,0.046,322.9
2020-07-16T04:25:03,42.805,6.029,0.014,0.008,-0.029,103.0,121.0,102.0,13.4,1505.3,324.3,-0.7,1.8,2470.453,13.33,0.016,60.3
2020-07-16T04:28:03,42.805,6.029,-0.027,0.036,-0.028,103.0,123.0,102.0,13.4,1505.3,325.2,-0.7,1.9,2470.383,13.32,0.045,323.1
2020-07-16T04:31:03,42.805,6.029,0.012,0.035,-0.015,104.0,122.0,102.0,13.4,1505.3,324.3,-0.7,1.8,2470.389,13.32,0.037,18.9
2020-07-16T04:34:03,42.805,6.029,-0.001,0.049,-0.011,103.0,123.0,101.0,13.4,1505.3,324.7,-0.7,1.9,2470.423,13.33,0.049,358.8
2020-07-16T04:37:03,42.805,6.029,0.009,0.025,-0.027,102.0,120.0,101.0,13.3,1505.3,324.0,-0.7,1.8,2470.396,13.33,0.026,19.8
2020-07-16T04:40:03,42.805,6.029,0.016,0.049,0.012,103.0,120.0,101.0,13.3,1505.3,324.0,-0.7,1.8,2470.415,13.33,0.051,18.1
2020-07-16T04:43:03,42.805,6.029,-0.002,0.038,-0.021,104.0,120.0,102.0,13.4,1505.3,324.3,-0.7,1.9,2470.393,13.33,0.038,357.0
2020-07-16T04:46:03,42.805,6.029,-0.01,0.017,-0.034,104.0,121.0,100.0,13.4,1505.3,326.5,-0.7,1.8,2470.401,13.33,0.019,329.5
2020-07-16T04:49:03,42.805,6.029,-0.013,0.018,-0.017,102.0,122.0,101.0,13.4,1505.3,325.4,-0.7,1.8,2470.421,13.33,0.022,324.2
2020-07-16T04:52:03,42.805,6.029,-0.01,0.015,-0.016,103.0,121.0,101.0,13.3,1505.3,328.2,-0.7,1.8,2470.38,13.33,0.018,326.3
2020-07-16T04:55:03,42.805,6.029,0.002,0.002,-0.013,103.0,119.0,102.0,13.3,1505.3,326.5,-0.7,1.8,2470.415,13.33,0.002,45.0
2020-07-16T04:58:03,42.805,6.029,-0.019,0.028,-0.021,102.0,121.0,101.0,13.4,1505.3,326.1,-0.7,1.8,2470.405,13.33,0.033,325.8
2020-07-16T05:04:03,42.805,6.029,0.023,0.017,0.014,103.0,122.0,101.0,13.4,1505.3,327.2,-0.7,1.8,2470.454,13.31,0.028,53.5
2020-07-16T05:07:03,42.805,6.029,0.018,0.006,-0.018,103.0,121.0,100.0,13.4,1505.3,327.7,-0.7,1.8,2470.392,13.31,0.018,71.6
2020-07-16T05:10:03,42.805,6.029,0.016,0.018,-0.025,104.0,119.0,102.0,13.3,1505.3,325.8,-0.7,1.8,2470.403,13.32,0.024,41.6
2020-07-16T05:13:03,42.805,6.029,0.002,0.04,-0.026,103.0,123.0,101.0,13.3,1505.3,327.1,-0.7,1.8,2470.419,13.32,0.04,2.9
2020-07-16T05:16:03,42.805,6.029,0.01,0.024,0.008,103.0,121.0,101.0,13.3,1505.3,325.1,-0.7,1.9,2470.384,13.32,0.026,22.6
2020-07-16T05:19:03,42.805,6.029,-0.011,0.033,-0.02,103.0,122.0,101.0,13.4,1505.3,324.9,-0.7,1.8,2470.385,13.32,0.034,341.6
2020-07-16T05:22:03,42.805,6.029,-0.001,0.025,-0.014,103.0,123.0,102.0,13.3,1505.3,324.8,-0.7,1.8,2470.388,13.32,0.025,357.7
2020-07-16T05:25:03,42.805,6.029,0.01,0.039,0.011,103.0,121.0,101.0,13.4,1505.3,326.0,-0.7,1.8,2470.378,13.33,0.04,14.4
2020-07-16T05:28:03,42.805,6.029,0.009,0.039,-0.019,101.0,123.0,101.0,13.4,1505.3,326.1,-0.7,1.8,2470.392,13.33,0.04,13.0
2020-07-16T05:31:03,42.805,6.029,0.033,0.027,0.039,103.0,121.0,101.0,13.4,1505.3,324.2,-0.7,1.8,2470.384,13.33,0.042,50.7
2020-07-16T05:34:03,42.805,6.029,-0.026,0.024,-0.052,102.0,124.0,101.0,13.4,1505.3,325.5,-0.7,1.8,2470.395,13.33,0.035,312.7
2020-07-16T05:37:03,42.805,6.029,-0.011,0.018,-0.02,103.0,121.0,100.0,13.3,1505.3,323.2,-0.7,1.8,2470.372,13.33,0.021,328.6
2020-07-16T05:40:03,42.805,6.029,0.013,0.027,-0.004,104.0,122.0,102.0,13.4,1505.3,327.6,-0.7,1.8,2470.401,13.33,0.029,25.7
2020-07-16T05:43:03,42.805,6.029,0.006,0.022,-0.021,104.0,122.0,101.0,13.4,1505.3,324.7,-0.7,1.9,2470.349,13.33,0.022,15.3
2020-07-16T05:46:03,42.805,6.029,0.01,0.035,0.009,102.0,121.0,101.0,13.3,1505.3,322.7,-0.7,1.8,2470.374,13.33,0.036,15.9
2020-07-16T05:49:03,42.805,6.029,-0.005,0.037,0.011,103.0,122.0,101.0,13.4,1505.3,327.7,-0.7,1.8,2470.421,13.33,0.037,352.3
2020-07-16T05:52:03,42.805,6.029,0.0,0.025,-0.016,103.0,122.0,101.0,13.3,1505.3,325.5,-0.7,1.9,2470.373,13.33,0.025,0.0
2020-07-16T05:55:03,42.805,6.029,0.007,0.017,0.002,104.0,122.0,101.0,13.3,1505.3,323.1,-0.7,1.8,2470.373,13.33,0.018,22.4
2020-07-16T05:58:03,42.805,6.029,0.0,0.027,-0.017,103.0,121.0,101.0,13.4,1505.3,328.5,-0.7,1.8,2470.355,13.33,0.026,0.0
2020-07-16T06:04:03,42.805,6.029,0.002,0.034,-0.022,104.0,122.0,102.0,13.4,1505.3,324.2,-0.7,1.8,2470.418,13.31,0.034,3.4
2020-07-16T06:07:03,42.805,6.029,-0.001,0.028,-0.001,104.0,121.0,101.0,13.3,1505.3,324.1,-0.7,1.8,2470.403,13.31,0.028,358.0
2020-07-16T06:10:03,42.805,6.029,0.003,0.03,-0.029,103.0,120.0,101.0,13.4,1505.3,325.0,-0.7,1.8,2470.392,13.32,0.03,5.7
2020-07-16T06:13:03,42.805,6.029,0.028,0.0,-0.001,103.0,122.0,101.0,13.4,1505.3,324.0,-0.7,1.8,2470.368,13.32,0.028,90.0
2020-07-16T06:16:03,42.805,6.029,-0.002,0.031,-0.033,103.0,122.0,101.0,13.3,1505.3,325.4,-0.7,1.8,2470.395,13.32,0.031,356.3
2020-07-16T06:19:03,42.805,6.029,-0.018,0.024,0.0,103.0,122.0,101.0,13.4,1505.3,323.7,-0.7,1.8,2470.336,13.32,0.03,323.1
2020-07-16T06:22:03,42.805,6.029,0.006,0.003,-0.023,103.0,123.0,101.0,13.4,1505.3,328.1,-0.7,1.8,2470.378,13.32,0.006,63.4
2020-07-16T06:25:03,42.805,6.029,0.0,0.041,0.01,103.0,122.0,101.0,13.4,1505.3,326.0,-0.7,1.8,2470.357,13.32,0.041,0.0
2020-07-16T06:28:03,42.805,6.029,-0.006,0.016,-0.016,103.0,123.0,99.0,13.4,1505.3,326.6,-0.7,1.8,2470.365,13.32,0.017,339.4
2020-07-16T06:31:03,42.805,6.029,0.021,0.02,0.0,103.0,120.0,101.0,13.4,1505.3,326.2,-0.7,1.8,2470.349,13.32,0.028,46.4
2020-07-16T06:34:03,42.805,6.029,0.005,0.027,0.008,102.0,121.0,101.0,13.4,1505.3,327.6,-0.7,1.8,2470.351,13.32,0.027,10.5
2020-07-16T06:37:03,42.805,6.029,-0.018,0.043,-0.011,104.0,123.0,101.0,13.3,1505.3,326.3,-0.7,1.8,2470.374,13.32,0.046,337.3
2020-07-16T06:40:03,42.805,6.029,0.021,0.015,-0.005,102.0,121.0,101.0,13.3,1505.3,325.9,-0.7,1.8,2470.374,13.32,0.025,54.5
2020-07-16T06:43:03,42.805,6.029,-0.015,0.033,-0.011,103.0,120.0,102.0,13.3,1505.3,323.0,-0.7,1.8,2470.357,13.33,0.036,335.6
2020-07-16T06:46:03,42.805,6.029,0.009,0.02,0.01,102.0,122.0,102.0,13.4,1505.3,325.7,-0.7,1.8,2470.378,13.33,0.021,24.2
2020-07-16T06:49:03,42.805,6.029,-0.028,0.023,-0.018,104.0,122.0,102.0,13.3,1505.3,327.2,-0.7,1.8,2470.304,13.33,0.036,309.4
2020-07-16T06:52:03,42.805,6.029,0.0,0.028,-0.032,103.0,123.0,101.0,13.4,1505.3,326.3,-0.7,1.8,2470.337,13.32,0.028,0.0
2020-07-16T06:55:03,42.805,6.029,-0.008,0.029,-0.012,103.0,123.0,100.0,13.4,1505.3,328.5,-0.7,1.8,2470.356,13.32,0.03,344.6
2020-07-16T06:58:03,42.805,6.029,0.004,0.026,0.004,102.0,124.0,101.0,13.4,1505.3,326.1,-0.7,1.8,2470.334,13.32,0.026,8.7
2020-07-16T07:04:03,42.805,6.029,-0.014,0.021,0.018,102.0,124.0,100.0,13.3,1505.3,323.9,-0.7,1.8,2470.375,13.31,0.025,326.3
2020-07-16T07:07:03,42.805,6.029,-0.004,0.009,-0.029,103.0,121.0,102.0,13.4,1505.3,324.8,-0.8,1.8,2470.318,13.31,0.009,336.0
2020-07-16T07:10:03,42.805,6.029,0.005,0.01,-0.011,103.0,122.0,100.0,13.3,1505.3,326.4,-0.7,1.8,2470.342,13.32,0.011,26.6
2020-07-16T07:13:03,42.805,6.029,-0.013,0.032,-0.017,104.0,122.0,101.0,13.4,1505.3,323.4,-0.7,1.8,2470.316,13.32,0.034,337.9
2020-07-16T07:16:03,42.805,6.029,-0.005,0.008,-0.029,104.0,123.0,101.0,13.4,1505.3,326.4,-0.7,1.8,2470.347,13.32,0.009,328.0
2020-07-16T07:19:03,42.805,6.029,0.025,0.005,-0.038,104.0,122.0,100.0,13.4,1505.3,324.6,-0.7,1.8,2470.331,13.32,0.025,78.7
2020-07-16T07:22:03,42.805,6.029,-0.011,0.016,0.019,102.0,120.0,102.0,13.3,1505.3,325.3,-0.7,1.9,2470.344,13.32,0.019,325.5
2020-07-16T07:25:03,42.805,6.029,-0.003,0.026,-0.011,103.0,121.0,100.0,13.3,1505.3,327.8,-0.7,1.8,2470.357,13.32,0.026,353.4
2020-07-16T07:28:03,42.805,6.029,-0.044,0.039,-0.021,103.0,123.0,101.0,13.3,1505.3,325.3,-0.7,1.8,2470.341,13.32,0.058,311.6
2020-07-16T07:31:03,42.805,6.029,0.0,0.016,-0.05,103.0,121.0,102.0,13.4,1505.3,325.5,-0.7,1.8,2470.318,13.32,0.016,0.0
2020-07-16T07:34:03,42.805,6.029,0.006,0.037,-0.021,103.0,121.0,102.0,13.4,1505.3,326.5,-0.7,1.9,2470.361,13.32,0.037,9.2
2020-07-16T07:37:03,42.805,6.029,0.018,0.033,-0.001,103.0,122.0,101.0,13.3,1505.3,324.2,-0.7,1.8,2470.332,13.33,0.037,28.6
2020-07-16T07:40:03,42.805,6.029,-0.003,0.022,0.022,103.0,121.0,102.0,13.4,1505.3,325.9,-0.7,1.8,2470.317,13.32,0.022,352.2
2020-07-16T07:43:03,42.805,6.029,0.001,0.026,-0.023,104.0,122.0,101.0,13.4,1505.3,325.4,-0.7,1.8,2470.315,13.32,0.026,2.2
2020-07-16T07:46:03,42.805,6.029,0.018,0.015,-0.001,104.0,122.0,100.0,13.4,1505.3,327.7,-0.7,1.8,2470.305,13.32,0.023,50.2
2020-07-16T07:49:03,42.805,6.029,-0.005,0.015,-0.037,101.0,123.0,103.0,13.4,1505.3,323.2,-0.7,1.8,2470.314,13.32,0.015,341.6
2020-07-16T07:52:03,42.805,6.029,0.026,0.031,-0.006,102.0,120.0,102.0,13.4,1505.3,326.4,-0.7,1.8,2470.314,13.32,0.04,40.0
2020-07-16T07:55:03,42.805,6.029,0.011,0.026,-0.015,103.0,122.0,102.0,13.3,1505.3,326.4,-0.7,1.8,2470.327,13.33,0.028,22.9
2020-07-16T07:58:03,42.805,6.029,0.0,0.025,-0.031,102.0,120.0,102.0,13.4,1505.3,326.8,-0.7,1.8,2470.31,13.32,0.025,0.0
2020-07-16T08:04:03,42.805,6.029,0.012,0.031,0.003,103.0,121.0,102.0,13.4,1505.3,325.3,-0.7,1.8,2470.349,13.31,0.033,21.2
2020-07-16T08:07:03,42.805,6.029,0.012,0.026,-0.002,103.0,122.0,102.0,13.4,1505.3,325.4,-0.7,1.8,2470.328,13.31,0.028,24.8
2020-07-16T08:10:03,42.805,6.029,0.009,0.032,-0.009,103.0,123.0,101.0,13.4,1505.3,325.5,-0.7,1.8,2470.339,13.32,0.033,15.7
2020-07-16T08:13:03,42.805,6.029,0.016,-0.003,0.012,104.0,121.0,101.0,13.3,1505.3,325.2,-0.7,1.9,2470.327,13.32,0.016,100.6
2020-07-16T08:16:03,42.805,6.029,0.004,0.032,0.015,105.0,119.0,100.0,13.4,1505.3,323.6,-0.7,1.8,2470.27,13.32,0.032,7.1
2020-07-16T08:22:03,42.805,6.029,-0.009,0.018,0.023,103.0,121.0,102.0,13.3,1505.2,325.3,-0.7,1.8,2470.329,13.3,0.02,333.4
2020-07-16T08:25:03,42.805,6.029,0.001,0.016,0.0,103.0,121.0,102.0,13.4,1505.3,325.5,-0.7,1.8,2470.318,13.31,0.016,3.6
2020-07-16T08:28:03,42.805,6.029,-0.001,0.035,-0.022,105.0,121.0,100.0,13.4,1505.3,326.6,-0.7,1.9,2470.328,13.32,0.035,358.4
2020-07-16T08:31:03,42.805,6.029,-0.012,0.028,-0.028,102.0,122.0,100.0,13.3,1505.3,326.8,-0.7,1.8,2470.361,13.32,0.03,336.8
2020-07-16T08:34:03,42.805,6.029,0.009,0.017,0.016,103.0,121.0,100.0,13.3,1505.3,326.7,-0.7,1.8,2470.327,13.32,0.019,27.9
2020-07-16T08:37:03,42.805,6.029,0.003,0.018,0.019,104.0,120.0,101.0,13.4,1505.3,323.0,-0.7,1.8,2470.298,13.32,0.018,9.5
2020-07-16T08:40:03,42.805,6.029,-0.006,0.024,0.021,102.0,123.0,101.0,13.4,1505.3,326.7,-0.7,1.8,2470.354,13.32,0.024,346.0
2020-07-16T08:43:03,42.805,6.029,0.012,0.018,-0.002,104.0,121.0,102.0,13.4,1505.3,326.4,-0.7,1.9,2470.288,13.32,0.021,33.7
2020-07-16T08:46:03,42.805,6.029,0.002,0.03,-0.003,104.0,119.0,100.0,13.4,1505.3,324.2,-0.7,1.8,2470.297,13.32,0.03,3.8
2020-07-16T08:49:03,42.805,6.029,0.009,0.029,-0.001,103.0,123.0,101.0,13.4,1505.3,326.6,-0.7,1.8,2470.271,13.32,0.03,17.2
2020-07-16T08:52:03,42.805,6.029,0.008,0.005,-0.006,103.0,122.0,101.0,13.4,1505.3,327.8,-0.7,1.8,2470.316,13.32,0.009,58.0
2020-07-16T08:55:03,42.805,6.029,0.023,0.024,-0.032,103.0,122.0,100.0,13.4,1505.3,327.6,-0.7,1.8,2470.316,13.32,0.033,43.8
2020-07-16T08:58:03,42.805,6.029,0.017,0.02,-0.001,103.0,122.0,101.0,13.4,1505.3,327.2,-0.7,1.8,2470.284,13.32,0.026,40.4
2020-07-16T09:04:03,42.805,6.029,-0.007,0.02,-0.045,104.0,122.0,101.0,13.4,1505.2,324.3,-0.8,1.8,2470.306,13.3,0.021,340.7
2020-07-16T09:07:03,42.805,6.029,0.023,0.023,0.01,103.0,119.0,101.0,13.4,1505.3,327.1,-0.7,1.8,2470.334,13.31,0.032,45.0
2020-07-16T09:10:03,42.805,6.029,0.013,0.029,-0.002,104.0,118.0,101.0,13.3,1505.3,327.8,-0.7,1.8,2470.274,13.32,0.031,24.1
2020-07-16T09:13:03,42.805,6.029,0.027,0.029,0.009,103.0,122.0,102.0,13.4,1505.3,326.4,-0.7,1.8,2470.273,13.32,0.039,43.0
2020-07-16T09:16:03,42.805,6.029,0.008,0.016,-0.005,102.0,120.0,101.0,13.4,1505.3,326.2,-0.7,1.8,2470.315,13.32,0.017,26.6
2020-07-16T09:19:03,42.805,6.029,0.012,0.027,0.026,102.0,121.0,101.0,13.4,1505.3,324.2,-0.7,1.8,2470.285,13.32,0.029,24.0
2020-07-16T09:22:03,42.805,6.029,0.01,0.0,0.006,103.0,122.0,101.0,13.4,1505.3,322.5,-0.7,1.8,2470.324,13.32,0.01,90.0
2020-07-16T09:25:03,42.805,6.029,0.016,0.035,0.028,103.0,119.0,101.0,13.4,1505.3,324.8,-0.7,1.9,2470.263,13.32,0.038,24.6
2020-07-16T09:28:03,42.805,6.029,0.011,0.037,-0.021,103.0,118.0,102.0,13.3,1505.3,323.5,-0.7,1.8,2470.271,13.33,0.038,16.6
2020-07-16T09:31:03,42.805,6.029,0.016,0.023,-0.024,103.0,119.0,101.0,13.4,1505.3,322.8,-0.7,1.8,2470.311,13.33,0.028,34.8
2020-07-16T09:34:03,42.805,6.029,0.008,0.023,-0.015,102.0,121.0,102.0,13.4,1505.3,323.5,-0.7,1.8,2470.298,13.33,0.024,19.2
2020-07-16T09:37:03,42.805,6.029,0.024,0.031,0.002,103.0,120.0,101.0,13.4,1505.3,327.6,-0.7,1.8,2470.293,13.32,0.039,37.7
2020-07-16T09:40:03,42.805,6.029,-0.019,0.026,-0.061,103.0,123.0,101.0,13.4,1505.3,328.0,-0.7,1.8,2470.262,13.32,0.032,323.8
2020-07-16T09:43:03,42.805,6.029,0.003,0.022,0.006,102.0,122.0,101.0,13.3,1505.3,324.7,-0.7,1.8,2470.321,13.32,0.022,7.8
2020-07-16T09:49:03,42.805,6.029,0.011,0.031,-0.01,103.0,121.0,101.0,13.3,1505.3,325.2,-0.7,1.8,2470.335,13.31,0.032,19.5
2020-07-16T09:52:03,42.805,6.029,0.009,0.026,-0.022,103.0,120.0,101.0,13.4,1505.3,327.1,-0.7,1.8,2470.316,13.31,0.027,19.1
2020-07-16T09:55:03,42.805,6.029,0.01,0.028,0.015,104.0,120.0,100.0,13.3,1505.3,328.5,-0.7,1.8,2470.322,13.32,0.029,19.6
2020-07-16T09:58:03,42.805,6.029,-0.013,0.029,-0.027,104.0,121.0,100.0,13.4,1505.3,323.9,-0.7,1.9,2470.266,13.32,0.031,335.9
2020-07-16T10:04:03,42.805,6.029,-0.012,0.039,-0.015,103.0,122.0,101.0,13.3,1505.2,323.4,-0.7,1.8,2470.322,13.3,0.04,342.9
2020-07-16T10:07:03,42.805,6.029,-0.005,0.007,-0.026,104.0,121.0,100.0,13.4,1505.3,326.7,-0.7,1.8,2470.32,13.31,0.008,324.5
2020-07-16T10:10:03,42.805,6.029,0.012,0.021,-0.015,103.0,120.0,100.0,13.3,1505.3,326.1,-0.7,1.8,2470.252,13.32,0.024,29.7